Location: Krakow
(50.0830°N, 19.9170°E)
Time: 12:32:54
(UTC+02:00)

Tiros 1 - Pass Details

Date: 16 February 2023
Orbit: 627 x 662 km, 48.4° (Epoch: 26 March)

Event Time Altitude Azimuth Distance (km) Brightness Sun altitude
Rises 19:37:01 0° 232° (SW) 2,910 11.1 -25.7°
Reaches altitude 10° 19:39:26 10° 225° (SW) 2,001 10.0 -26.1°
Enters shadow 19:41:50 27° 205° (SSW) 1,208 8.6 -26.5°
Maximum altitude 19:43:44 41° 156° (SSE) 919 - -26.8°
Drops below altitude 10° 19:48:03 10° 86° (E) 2,003 - -27.4°
Sets 19:50:27 0° 79° (E) 2,913 - -27.8°
